Regional Weather Roundup
Issued by NWS Boston, MA

Home | Current Version | Previous Version | Text Only | Print | Product List | Glossary On
Versions: 1 2 3 4 5 6 7 8 9 10 11 12 13 14 15 16 17 18 19 20 21 22 23 24 25 26 27 28 29 30 31 32 33 34 35 36 37 38 39 40 41 42 43 44 45 46 47 48 49 50
000
ASUS41 KBOX 211910
RWRBOX

REGIONAL WEATHER ROUNDUP
NATIONAL WEATHER SERVICE TAUNTON MA
300 PM EDT FRI JUL 21 2017

NOTE:  "FAIR" INDICATES FEW OR NO CLOUDS BELOW 12,000 FEET WITH NO
SIGNIFICANT WEATHER AND/OR OBSTRUCTIONS TO VISIBILITY.

MAZALL-212000-
EASTERN MASSACHUSETTS

CITY           SKY/WX    TMP DP  RH WIND       PRES   REMARKS
BOSTON         MOSUNNY   90  59  35 MISG      29.78F
BEVERLY        SUNNY     87  61  41 W10       29.78F
LAWRENCE       SUNNY     90  60  36 SW8       29.80F
BEDFORD        MOSUNNY   88  57  34 NW12      29.79F
BLUE HILL        N/A     89  57  33 VRB7G20   29.81F
NORWOOD        SUNNY     89  60  37 W8        29.78F
MARSHFIELD     SUNNY     84  61  45 SE8       29.79F
PLYMOUTH       SUNNY     88  59  37 SW6       29.80F
TAUNTON        SUNNY     90  61  37 W8        29.79F HX  90
NEW BEDFORD    SUNNY     89  64  43 SW13G18   29.80F HX  90
$$

MAZALL-212000-
CAPE COD AND THE ISLANDS

CITY           SKY/WX    TMP DP  RH WIND       PRES   REMARKS
FALMOUTH       SUNNY     84  68  58 SW12      29.82F
HYANNIS        SUNNY     86  67  52 SW12      29.79F
CHATHAM        SUNNY     84  65  52 S5        29.82F
PROVINCETOWN   SUNNY     85  59  41 N5        29.81F
NANTUCKET      SUNNY     79  69  71 SW14      29.83F
MARTHAS VNYRD  SUNNY     86  67  52 W8G17     29.82F
$$

MAZALL-212000-
CENTRAL AND WESTERN MASSACHUSETTS

CITY           SKY/WX    TMP DP  RH WIND       PRES   REMARKS
WORCESTER      SUNNY     85  60  42 NW12      29.85F
FITCHBURG      MOSUNNY   91  61  36 NW8       29.82F HX  91
ORANGE         SUNNY     89  58  34 W10       29.82F
SPRINGFIELD    PTSUNNY   88  65  46 W10       29.81F
WESTFIELD      SUNNY     88  66  48 S9        29.83F HX  90
NORTH ADAMS    MOSUNNY   82  63  52 W10G17    29.86S
PITTSFIELD     MOSUNNY   82  64  54 NW10G17   29.88F
$$

RIZALL-212000-
RHODE ISLAND

CITY           SKY/WX    TMP DP  RH WIND       PRES   REMARKS
PROVIDENCE     PTSUNNY   90  65  43 SW12      29.81F HX  92
NEWPORT        SUNNY     85  69  58 S7        29.81F
BLOCK ISLAND   SUNNY     84  69  60 SW14      29.84F
WESTERLY       SUNNY     86  69  56 SW9G20    29.84F HX  90
$$

CTZALL-212000-
CONNECTICUT

CITY           SKY/WX    TMP DP  RH WIND       PRES   REMARKS
BRADLEY INTL   PTSUNNY   88  65  46 W12       29.83F HX  90
HARTFORD       SUNNY     90  64  42 W9        29.82F HX  91
BRIDGEPORT     CLOUDY    88  70  55 SW14      29.85F HX  93
DANBURY        CLOUDY    86  64  47 VRB5      29.88F
GROTON         SUNNY     82  69  64 SW15      29.83F
NEW HAVEN      PTSUNNY   83  69  62 SW8G17    29.85F
CHESTER        FAIR      84  70  61 SW8       29.86F
MERIDEN        MOSUNNY   88  64  44 W7        29.84F
WILLIMANTIC    SUNNY     88  67  49 W6        29.83F HX  91
OXFORD         MOSUNNY   84  64  51 NW5       29.89F
$$

MEZ002-015-021-024-NHZ003-005-008-011-012-014-VTZ005-008-212000-
NORTHERN NEW ENGLAND

CITY           SKY/WX    TMP DP  RH WIND       PRES   REMARKS
PORTLAND ME    MOSUNNY   85  59  41 S15G25    29.76F
BANGOR ME      PTSUNNY   86  60  41 W6G17     29.72F
CONCORD NH     SUNNY     89  57  33 W12       29.79F
MANCHESTER NH  MOSUNNY   90  55  30 W9        29.78F
NASHUA NH      SUNNY     89  59  36 NW10      29.80F
PORTSMOUTH NH  MOSUNNY   88  59  37 SW7       29.76F
JAFFREY NH     SUNNY     87  60  40 VRB6      29.84F
KEENE NH       MOSUNNY   86  61  42 NW5G17    29.81F
BURLINGTON VT  PTSUNNY   86  62  44 SW8       29.79F
MT. WASHINGTON MOSUNNY   57  46  67 W36G41      N/A
$$

NYZ052-076-212000-
EASTERN NEW YORK

CITY           SKY/WX    TMP DP  RH WIND       PRES   REMARKS
ALBANY         CLOUDY    85  63  47 NW15G22   29.85S
NEW YORK CITY  CLOUDY    92  64  39 W13       29.85F HX  93
$$

ANZALL-212000-
MARINE OBSERVATIONS

STATION/POSITION TIME  TEMP    WIND        PRES    VSBY  WAVE
                       AIR SEA DIR/SP/G                  HT/PER
                 (UTC) (F)     (DEG/KT/KT) (MB)    (MI)  (FT/S)
BOSTON BUOY      1850   81 75  230/  2/  2 1008.7F         1/12
BUZZARDS BAY     1800   73     230/ 14/ 14 1010.8F
NANTUCKET SOUND  1850      72              1009.5F         1
MASS BAY-STELLWA 1804   72 62  170/  6/  8 1008.8F         1
ISLE OF SHOALS   1800   75     150/ 10/ 10 1008.9F
S OF BLOCK IS    1825      74                N/A           3/ 6
$$

......................KEY.........................
  SKY/WX - SKY CONDITION/PRESENT WEATHER
  TMP    - TEMPERATURE IN FAHRENHEIT
  DWPT   - DEWPOINT IN FAHRENHEIT
  RH     - RELATIVE HUMIDITY IN PERCENT
  WIND   - DIRECTION AND SPEED IN MPH
  PRES   - MEAN SEA LEVEL PRESSURE IN INCHES OF HG
  WCI    - WIND CHILL INDEX
  VSB    - VISIBILITY IN MILES
  HX     - HEAT INDEX
  TC     - TEMPERATURE IN CELSIUS
  VRB    - VARIABLE WIND DIRECTION
  N/A    - NOT AVAILABLE



USA.gov is the U.S. government's official web portal to all federal, state and local government web resources and services.